Weather History for Crestview, FL

Change the Weather History Date:

Friday, November 18, 2011

  Actual Average Record
Temperature  
Mean Temperature 48 °F -  
Max Temperature 66 °F - - ()
Min Temperature 30 °F - - ()
Degree Days  
Heating Degree Days 17    
Moisture  
Dew Point 38 °F    
Average Humidity 62    
Maximum Humidity 86    
Minimum Humidity 46    
Precipitation  
Precipitation 0.00 in - - ()
Sea Level Pressure  
Sea Level Pressure 30.28 in    
Wind  
Wind Speed 5 mph (ENE)    
Max Wind Speed 13 mph    
Max Gust Speed 17 mph    
Visibility 10 miles    
Events      
T = Trace of Precipitation, MM = Missing Value Source: NWS Daily Summary

Daily Weather History Graph

Daily Weather History Graph

Search for Another Location

Airport:

Trip Planner

Search our weather history database for the weather conditions in past years. The results will help you decide how hot, cold, wet, or windy it might be!

Date:

Astronomy

Nov. 18, 2011 Rise Set
Actual Time 6:14 AM CST 4:47 PM CST
Civil Twilight 5:49 AM CST 5:13 PM CST
Nautical Twilight 5:19 AM CST 5:42 PM CST
Astronomical Twilight 4:51 AM CST 6:11 PM CST
Moon No Moon Rise 12:05 PM CST
Length of Visible Light 11h 24m
Length of Day
10h 32m
Waning Gibbous, 49% of the Moon is Illuminated
Nov 18
Waning Gibbous
Nov 25
New
Dec 2
First Quarter
Dec 10
Full
Dec 17
Last Quarter

Hourly Weather History & Observations

Time (CST) Temp. Windchill Dew Point Humidity Pressure Visibility Wind Dir Wind Speed Gust Speed Precip Events Conditions
12:55 AM 38.1 °F 34.6 °F 27.9 °F 67% 30.28 in 10.0 mi North 4.6 mph - N/A   Clear
1:55 AM 35.8 °F 33.0 °F 27.3 °F 71% 30.30 in 10.0 mi North 3.5 mph - N/A   Clear
2:55 AM 34.7 °F 31.8 °F 26.6 °F 72% 30.30 in 10.0 mi NNE 3.5 mph - N/A   Clear
3:55 AM 34.5 °F 30.4 °F 25.9 °F 71% 30.30 in 10.0 mi North 4.6 mph - N/A   Clear
4:55 AM 34.0 °F 31.0 °F 26.2 °F 73% 30.30 in 10.0 mi North 3.5 mph - N/A   Clear
5:55 AM 30.6 °F 27.1 °F 26.1 °F 83% 30.32 in 10.0 mi North 3.5 mph - N/A   Clear
6:55 AM 32.0 °F - 28.2 °F 86% 30.34 in 10.0 mi Calm Calm - N/A   Clear
7:55 AM 41.5 °F 37.1 °F 27.7 °F 58% 30.34 in 10.0 mi NE 6.9 mph - N/A   Clear
8:55 AM 52.2 °F - 34.5 °F 51% 30.34 in 10.0 mi ENE 12.7 mph 17.3 mph N/A   Clear
9:55 AM 56.8 °F - 39.7 °F 53% 30.33 in 10.0 mi East 9.2 mph 17.3 mph N/A   Clear
10:55 AM 60.4 °F - 41.4 °F 49% 30.31 in 10.0 mi East 8.1 mph - N/A   Clear
11:55 AM 63.7 °F - 42.8 °F 47% 30.28 in 10.0 mi SE 5.8 mph - N/A   Partly Cloudy
12:55 PM 65.3 °F - 44.1 °F 46% 30.26 in 10.0 mi ESE 6.9 mph - N/A   Partly Cloudy
1:55 PM 66.6 °F - 45.1 °F 46% 30.23 in 10.0 mi SSE 9.2 mph - N/A   Partly Cloudy
2:55 PM 66.7 °F - 46.6 °F 48% 30.23 in 10.0 mi Calm Calm - N/A   Scattered Clouds
4:55 PM 61.5 °F - 48.0 °F 61% 30.24 in 10.0 mi Calm Calm - N/A   Overcast
5:55 PM 59.5 °F - 49.3 °F 69% 30.26 in 10.0 mi NNE 2.3 mph - N/A   Overcast
6:55 PM 60.4 °F - 45.5 °F 58% 30.26 in 10.0 mi ENE 5.8 mph - N/A   Overcast
7:55 PM 60.3 °F - 43.5 °F 54% 30.26 in 10.0 mi East 6.9 mph - N/A   Overcast
8:55 PM 58.3 °F - 43.7 °F 58% 30.25 in 10.0 mi East 6.9 mph - N/A   Mostly Cloudy
9:55 PM 56.5 °F - 45.1 °F 66% 30.25 in 10.0 mi East 9.2 mph - N/A   Clear
10:55 PM 55.4 °F - 45.5 °F 69% 30.24 in 10.0 mi East 9.2 mph - N/A   Clear
11:55 PM 54.9 °F - 45.9 °F 72% 30.22 in 10.0 mi East 8.1 mph - N/A   Clear